Regional Weather Roundup
Issued by NWS

Home | Current Version | Previous Version | Text Only | Print | Product List | Glossary On
Versions: 1 2 3 4 5 6 7 8 9 10 11 12 13 14 15 16 17 18 19 20 21 22 23 24 25 26 27
000
ASCA42 TJSJ 230510
RWRPR
PUERTO RICO/U.S. VIRGIN ISLANDS HOURLY WEATHER ROUNDUP
NATIONAL WEATHER SERVICE SAN JUAN PR
100 AM AST TUE MAY 23 2017

PRZ001>002-007>008-010-230600-
PUERTO RICO

CITY           SKY/WX    TMP DP  RH WIND       PRES   REMARKS
SAN JUAN LMM   MOCLDY    81  75  83 E8        30.03F
PONCE          PTCLDY    75  72  88 CALM      30.04F
CEIBA          CLOUDY    81  75  83 E6        30.05F
$$

VIZ001>002-230600-
U.S. VIRGIN ISLANDS

CITY           SKY/WX    TMP DP  RH WIND       PRES   REMARKS
CHARLOTTE AMA  CLOUDY    82  75  78 E8        30.02F
CHRISTIANSTED  CLOUDY    79  75  89 NE6       30.02F
$$

HOURLY WEATHER ROUNDUP FOR THE NEWS MEDIA

CITY           SKY/WX    TMP DP  RH WIND       PRES   REMARKS
ORLANDO        CLOUDY    74  74 100 SW3       29.99F
NEW YORK       CLOUDY    62  61  96 NW8       29.96S
NEWARK         CLOUDY    59  58  96 NW7       29.96S
CHICAGO        CLOUDY    60  53  77 SW6       29.88F
HARTFORD       LGT RAIN  57  56  96 S6        29.92F FOG
BOSTON         DRIZZLE   53  53 100 N6        29.96F FOG
DALLAS         CLOUDY    67  61  81 SE13      29.92F
PHILADELPHIA   CLOUDY    64  59  83 NW8       29.97S
LOS ANGELES    CLOUDY    60  57  89 W8        29.95R
WASHINGTON DC  CLOUDY    62  55  77 NW6       29.98F



USA.gov is the U.S. government's official web portal to all federal, state and local government web resources and services.